G7UKK-10 Weather Reports


time (UTC)temp
C
wind
direction
speed
KPH
gust
KPH
rain 1hr
cm
rain 24hr
cm
rain mn
cm
humidity
%
barometer
mb
20260506034016 3 88 4.8 6.4 0.00 0.00 0.00 86 1017.3
20260506032516 3 342 6.4 6.4 0.00 0.00 0.00 86 1017.2
20260506031016 3 17 3.2 4.8 0.00 0.00 0.00 86 1017.5
20260506025516 3 342 3.2 4.8 0.00 0.00 0.00 86 1017.3
20260506024016 4 35 3.2 4.8 0.00 0.00 0.00 85 1017.3
20260506022517 4 0 0.0 0.0 0.00 0.00 0.00 85 1017.3
20260506021016 4 0 0.0 0.0 0.00 0.00 0.00 84 1017.2
20260506015516 5 0 0.0 0.0 0.00 0.00 0.00 83 1017.2
20260506014016 5 0 0.0 0.0 0.00 0.00 0.00 82 1017.5
20260506012516 5 0 0.0 0.0 0.00 0.00 0.00 82 1017.5
20260506011017 5 0 0.0 0.0 0.00 0.00 0.00 82 1017.3
20260506005516 5 0 0.0 0.0 0.00 0.00 0.00 81 1017.7
20260506004016 5 0 0.0 0.0 0.00 0.00 0.00 82 1017.6
20260506002517 6 0 0.0 0.0 0.00 0.00 0.00 81 1017.6
20260506001016 6 0 0.0 0.0 0.00 0.00 0.00 81 1017.6
20260505235517 6 118 0.0 1.6 0.00 0.00 0.00 82 1017.7
20260505234017 6 0 0.0 0.0 0.00 0.00 0.00 81 1017.6
20260505232516 6 0 0.0 0.0 0.00 0.00 0.00 81 1017.9
20260505231016 6 114 1.6 3.2 0.00 0.00 0.00 80 1017.8
20260505225516 6 96 1.6 1.6 0.00 0.00 0.00 81 1017.9
20260505224016 6 83 0.0 1.6 0.00 0.00 0.00 80 1018.0
20260505222516 6 106 1.6 3.2 0.00 0.00 0.00 81 1018.1
20260505221016 6 110 1.6 3.2 0.00 0.00 0.00 81 1017.7
20260505215516 6 128 0.0 1.6 0.00 0.00 0.00 80 1018.2
20260505214016 6 111 0.0 1.6 0.00 0.00 0.00 79 1017.8
20260505212516 7 83 3.2 3.2 0.00 0.00 0.00 79 1017.9
20260505211016 7 82 1.6 3.2 0.00 0.00 0.00 79 1017.9
20260505205516 7 112 0.0 1.6 0.00 0.00 0.00 79 1017.6
20260505204016 7 72 1.6 3.2 0.00 0.00 0.00 78 1017.7
20260505202516 7 72 1.6 3.2 0.00 0.00 0.00 78 1017.7
20260505201016 7 0 0.0 0.0 0.00 0.00 0.00 80 1017.4
20260505195516 7 74 3.2 4.8 0.00 0.00 0.00 79 1017.2
20260505194016 7 100 3.2 4.8 0.00 0.00 0.00 79 1017.2
20260505192516 7 88 3.2 4.8 0.00 0.00 0.00 78 1017.3
20260505191016 8 106 1.6 1.6 0.00 0.00 0.00 80 1017.1
20260505185516 8 86 3.2 4.8 0.00 0.00 0.00 79 1016.9
20260505184016 8 75 3.2 3.2 0.00 0.00 0.00 80 1016.9
20260505182516 8 69 6.4 12.9 0.00 0.00 0.00 79 1016.8
20260505181016 8 41 4.8 6.4 0.00 0.00 0.00 76 1016.4
20260505175516 8 39 4.8 4.8 0.00 0.00 0.00 76 1016.6
20260505174016 9 17 3.2 4.8 0.00 0.00 0.00 77 1016.5
20260505172516 10 126 3.2 4.8 0.00 0.00 0.00 77 1016.4
20260505171016 10 126 3.2 4.8 0.00 0.00 0.00 77 1016.4
20260505165516 10 126 3.2 4.8 0.00 0.00 0.00 77 1016.4
20260505164016 10 126 3.2 4.8 0.00 0.00 0.00 77 1016.4
20260505162516 10 126 3.2 4.8 0.00 0.00 0.00 77 1016.4
20260505161016 10 126 3.2 4.8 0.00 0.00 0.00 77 1016.4
20260505152516 10 81 3.2 6.4 0.00 0.00 0.00 76 1016.3
20260505151016 12 95 1.6 3.2 0.00 0.00 0.00 66 1015.9
20260505124016 11 349 9.7 11.3 0.00 0.00 0.00 66 1016.0
20260505122516 11 360 8.0 12.9 0.00 0.00 0.00 67 1016.0
20260505121016 11 355 6.4 6.4 0.00 0.00 0.00 68 1016.1
20260505115516 10 357 8.0 11.3 0.00 0.00 0.00 69 1016.0
20260505114016 11 79 4.8 9.7 0.00 0.00 0.00 67 1016.3
20260505112516 11 335 6.4 9.7 0.00 0.00 0.00 66 1016.0
20260505111016 11 332 4.8 6.4 0.00 0.00 0.00 66 1016.2
20260505101016 10 296 6.4 6.4 0.00 0.00 0.00 65 1016.1
20260505095516 10 342 11.3 12.9 0.00 0.00 0.00 65 1016.0
20260505094016 10 36 6.4 9.7 0.00 0.00 0.00 65 1016.3
20260505092516 10 45 4.8 9.7 0.00 0.00 0.00 66 1016.2
20260505091016 10 345 9.7 12.9 0.00 0.00 0.00 68 1016.3
20260505085516 10 344 8.0 12.9 0.00 0.00 0.00 71 1016.4
20260505084016 10 353 8.0 11.3 0.00 0.00 0.00 68 1016.4
20260505082516 10 19 9.7 11.3 0.00 0.00 0.00 66 1016.2
20260505081016 10 347 9.7 14.5 0.00 0.00 0.00 68 1016.4
20260505075516 10 345 9.7 16.1 0.00 0.00 0.00 74 1016.2
20260505074016 8 355 9.7 12.9 0.00 0.00 0.00 77 1016.3
20260505072516 8 355 11.3 12.9 0.00 0.00 0.00 78 1016.3
20260505071016 8 327 9.7 12.9 0.00 0.00 0.00 80 1016.1
20260505065516 7 8 6.4 9.7 0.00 0.00 0.00 81 1016.6
20260505064016 7 36 6.4 9.7 0.00 0.00 0.00 81 1016.5
20260505062516 7 287 4.8 9.7 0.00 0.00 0.00 85 1016.4
20260505061016 6 234 4.8 6.4 0.00 0.00 0.00 86 1016.7
20260505055516 6 289 4.8 9.7 0.00 0.00 0.00 88 1016.4
20260505054016 6 289 4.8 9.7 0.00 0.00 0.00 88 1016.4
20260505052516 6 260 6.4 9.7 0.00 0.00 0.00 88 1016.3
20260505051016 6 254 3.2 6.4 0.00 0.00 0.00 88 1016.3
20260505041016 5 223 3.2 4.8 0.00 0.00 0.00 90 1016.0
20260505035516 6 265 3.2 4.8 0.00 0.00 0.00 90 1016.0